Location: Newark
(41.0400°S, 62.7845°W)
Time: 16:29:04
(UTC+00:00)

Vanguard 2 Rocket - Pass Details

Date: 29 November 2021
Orbit: 553 x 3325 km, 32.9° (Epoch: 23 January)

Event Time Altitude Azimuth Distance (km) Brightness Sun altitude
Rises 15:29:49 0° 269° (W) 4,769 10.5 69.6°
Reaches altitude 10° 15:34:10 10° 279° (W) 3,284 9.9 69.8°
Maximum altitude 15:40:09 25° 331° (NNW) 1,753 9.0 70.1°
Drops below altitude 10° 15:44:19 10° 27° (NNE) 2,211 9.3 70.3°
Sets 15:46:39 0° 41° (NE) 2,944 9.8 70.4°
